Tracking 33747 objects as of 12-Apr-2026
HD Live streaming from Space Station
objects crossing your sky now

STARLINK-36914

Track STARLINK-36914 now!
10-day predictions
STARLINK-36914 is classified as:


NORAD ID: 67942
Int'l Code: 2026-037L
Perigee: 489.5 km
Apogee: 490.8 km
Inclination: 43.0 °
Period: 94.3 minutes
Semi major axis: 6861 km
RCS: Unknown
Launch date: February 24, 2026
Source: United States (US)
Launch site: AIR FORCE EASTERN TEST RANGE (AFETR)
Your satellite tracking list
Your tracking list is empty




NASA's NSSDC Master Catalog

Two Line Element Set (TLE):
1 67942U 26037L   26101.73162404  .00028166  00000-0  10290-2 0  9990
2 67942  42.9993   4.1496 0000957 270.5746  89.4996 15.27585112  8394
Source of the keplerian elements: AFSPC